Wind_Speed
18 18 17 18 18 18 17 17 18 19 19 19 20 20 20 21 21 21 21 21 22 21 21 21 21 22 21 21 22 22 23 22 21 20 21 22 22 22 22 21 21 21 21
18 18 17 17 18 18 18 19 19 20 20 20 21 21 21 21 21 21 22 22 22 22 22 23 23 23 23 23 23 23 23 23 22 22 22 22 23 23 22 22 22 21 21
19 19 18 18 18 18 19 19 20 20 20 21 22 22 22 22 22 22 22 23 23 23 23 23 23 23 24 24 24 24 24 24 24 24 24 24 23 23 23 22 22 22 22
20 20 20 19 20 19 19 20 20 21 21 22 22 22 22 23 23 23 23 24 24 24 25 24 25 25 25 25 25 25 24 24 24 25 25 24 24 24 23 23 23 23 23
21 21 20 20 21 20 20 20 20 21 21 21 21 22 22 23 23 23 23 24 24 25 25 25 25 25 25 25 25 25 25 24 24 24 25 24 25 25 25 24 23 23 22
22 21 21 22 22 21 21 20 20 20 20 20 21 21 22 23 23 23 24 25 26 25 25 25 25 25 25 25 25 25 24 25 25 26 26 25 25 25 25 25 25 23 22
22 22 22 23 23 22 22 21 20 20 21 21 21 21 22 22 23 23 24 24 24 24 24 25 25 25 25 25 25 25 26 26 26 26 27 27 27 26 26 26 25 24 23
23 23 24 24 24 23 23 22 22 21 21 21 21 21 22 22 23 23 24 23 23 24 24 24 24 24 24 24 25 25 26 26 26 27 27 26 26 26 26 26 25 24 24
23 23 24 25 24 23 23 23 22 22 21 21 22 22 22 22 23 23 24 24 23 24 23 24 24 24 25 25 26 26 27 27 27 26 26 25 25 25 26 26 26 25 24
24 23 23 24 23 23 22 22 22 22 22 22 23 23 23 23 23 23 23 24 24 24 24 24 24 25 26 26 27 27 26 26 26 25 25 25 25 25 25 26 26 26 24
24 23 22 23 23 23 23 23 23 23 23 23 23 24 23 23 24 23 23 24 24 25 24 24 25 25 25 26 26 26 25 26 25 24 24 24 24 25 26 26 26 26 25
24 24 24 24 24 24 24 24 25 24 24 23 23 23 23 22 22 22 23 23 24 25 25 25 25 25 25 25 25 25 25 25 24 24 24 24 25 25 25 25 25 24 25
25 25 25 25 25 25 25 24 24 24 25 23 22 22 22 22 22 22 24 24 24 24 24 24 25 24 24 24 24 24 24 24 24 23 24 24 25 25 25 24 24 24 24
25 26 26 25 25 25 25 24 24 23 24 23 23 23 23 22 21 22 23 24 24 24 25 25 24 23 23 24 24 23 23 24 24 24 24 24 24 24 23 22 22 23 24
26 26 25 25 25 25 24 24 24 24 23 24 24 24 23 22 21 22 23 23 24 24 24 24 24 23 23 23 24 23 23 24 24 25 24 24 24 23 22 22 22 23 24
26 25 25 25 25 25 25 24 24 24 24 24 24 24 22 22 22 22 23 23 23 23 22 21 22 23 23 23 22 22 23 22 23 23 23 23 23 22 22 23 22 22 22
26 26 25 25 25 24 24 24 24 24 24 24 23 23 22 22 21 21 22 23 23 22 21 21 21 22 22 23 23 23 22 22 22 22 22 22 22 22 22 21 21 21 21
26 26 25 24 23 23 24 24 23 23 23 23 23 22 22 21 22 22 22 22 22 21 21 21 21 21 21 21 22 22 21 21 22 22 21 21 21 22 22 22 21 21 21
26 25 24 23 22 22 22 22 22 22 22 23 23 22 21 20 20 21 22 22 21 21 21 21 21 21 20 20 21 21 21 21 21 21 21 21 21 22 22 21 21 21 21
26 25 24 23 23 22 21 21 21 21 22 22 22 21 20 20 20 21 21 21 20 20 20 20 20 20 21 21 21 20 20 20 20 20 21 21 22 21 21 20 20 20 20
24 23 23 23 22 21 21 20 20 21 21 21 20 20 20 20 20 20 20 19 19 19 18 18 18 19 20 20 20 20 19 19 19 19 20 21 22 22 21 20 20 19 20
24 23 22 21 21 21 21 21 21 21 20 20 20 20 20 20 20 19 19 18 18 18 17 17 17 18 18 18 18 19 19 19 19 19 18 18 18 19 19 19 20 20 20
23 22 21 21 20 21 21 21 20 20 20 19 19 20 20 20 20 19 18 18 17 17 17 17 17 18 18 18 18 18 18 18 18 17 18 18 18 19 20 20 20 21 21
23 22 22 21 21 21 21 20 20 20 20 20 20 21 20 20 20 19 19 18 17 17 16 16 16 16 16 16 17 18 18 18 18 18 18 19 19 19 20 21 21 21 21
22 22 22 21 20 21 21 20 20 20 21 21 21 21 20 20 19 18 18 17 17 18 18 17 16 16 16 16 17 17 17 17 17 18 18 18 19 20 20 20 20 20 20
20 21 21 20 20 20 20 20 20 20 20 21 21 20 19 19 18 17 17 18 18 18 18 17 16 17 17 17 17 17 17 17 18 18 18 19 20 21 20 20 20 20 19
Wind_Direction
298 295 295 296 293 286 286 287 285 283 281 280 279 279 279 277 276 275 274 273 273 273 273 273 275 275 275 275 275 276 277 278 280 279 277 274 274 275 275 275 275 275 275
297 298 299 297 295 290 285 287 287 285 282 281 280 278 277 277 275 274 273 274 273 274 275 274 274 275 274 275 276 277 279 278 278 278 278 276 275 275 275 275 275 275 274
295 298 300 299 296 292 288 287 287 286 284 282 282 279 277 276 275 274 274 274 274 274 274 274 274 274 274 275 276 278 279 279 277 276 276 275 275 274 274 274 275 275 273
295 296 298 298 297 292 289 287 287 286 285 284 282 280 278 277 276 276 275 274 275 275 275 275 275 275 275 275 276 277 277 278 277 276 275 274 273 272 272 273 272 272 272
294 294 295 295 294 292 291 289 288 289 287 285 283 281 278 277 276 276 276 276 276 276 275 275 276 276 276 276 276 277 276 276 276 276 276 274 272 273 272 271 271 271 272
294 295 294 295 293 292 291 289 288 289 289 287 285 283 280 278 277 277 276 276 276 275 275 275 275 275 275 277 276 275 276 277 276 275 275 273 271 270 270 271 270 270 270
294 295 295 295 294 291 291 287 286 287 286 286 285 283 282 280 279 280 280 279 277 276 275 275 274 274 275 275 275 276 277 277 277 277 275 273 271 268 268 269 269 268 269
293 294 296 295 295 291 289 290 288 286 286 287 287 286 284 282 280 280 280 281 280 278 277 277 276 277 277 276 276 276 276 277 277 277 276 275 272 269 267 267 267 268 268
291 292 295 295 295 292 292 291 288 286 287 288 288 287 285 283 281 280 280 281 281 279 278 278 277 277 276 276 277 278 279 280 279 279 277 277 275 273 272 269 268 267 267
288 289 292 294 296 296 294 293 290 287 287 286 286 286 286 284 282 281 281 281 280 279 279 279 279 278 277 277 278 278 278 279 278 278 277 276 275 274 274 272 270 266 267
287 289 290 292 293 295 295 296 294 292 291 287 285 287 287 285 284 282 281 281 281 280 280 279 279 280 279 279 278 277 278 278 277 275 275 275 274 274 274 273 272 268 266
285 287 288 289 291 292 293 295 294 294 293 291 287 288 290 289 288 283 283 284 285 282 280 280 279 279 278 278 278 277 278 278 276 275 274 275 274 274 273 272 270 267 265
284 286 287 289 290 289 291 293 293 293 293 292 292 291 291 290 289 287 286 284 286 285 282 280 278 277 276 277 278 278 279 277 275 274 275 275 274 275 274 272 268 266 265
285 285 286 288 289 289 288 290 291 290 291 292 292 291 290 289 290 289 287 285 284 283 282 279 276 276 276 278 279 279 278 278 275 274 275 277 278 276 272 270 269 267 266
284 286 288 288 289 289 289 287 287 289 291 292 292 292 291 289 289 288 288 289 286 285 283 279 276 275 277 279 280 278 277 276 275 276 276 278 278 275 271 270 269 268 267
285 287 288 289 289 290 290 288 287 288 289 290 291 291 290 288 287 288 289 289 287 285 281 280 278 277 277 278 278 278 276 275 275 274 276 276 276 275 273 271 268 268 268
284 286 288 289 291 292 292 291 290 291 291 291 292 291 291 289 288 288 289 288 288 285 281 279 280 280 278 276 276 276 274 273 273 273 274 275 276 275 273 271 269 269 269
284 286 287 288 290 291 292 291 290 292 293 293 293 292 291 290 291 290 290 289 288 285 282 280 279 280 278 276 275 274 273 272 272 273 273 274 276 275 273 272 272 271 268
281 283 285 285 287 290 292 292 292 291 291 292 293 295 293 292 293 292 291 289 287 284 281 279 278 277 277 276 278 276 273 272 272 272 271 272 274 273 271 272 272 270 269
280 281 282 282 283 286 289 292 293 292 292 292 293 292 293 293 294 294 292 290 288 286 283 280 279 277 277 277 280 278 276 274 273 272 272 272 272 274 273 273 272 270 269
276 278 279 278 279 282 288 291 294 295 293 294 294 293 292 294 294 294 292 289 286 285 283 282 281 280 279 279 278 279 278 276 276 276 275 274 273 273 272 271 270 270 271
275 277 277 276 277 281 286 290 293 295 295 294 293 292 291 292 294 293 291 288 285 283 283 283 282 281 280 279 280 280 279 277 278 278 276 277 277 276 274 273 272 272 273
273 276 276 276 278 282 286 289 292 294 293 291 291 292 292 292 291 290 288 287 285 283 282 282 283 284 281 279 279 279 280 279 279 280 280 279 279 278 277 276 275 273 273
270 272 274 275 277 280 282 287 290 291 292 291 290 292 293 293 290 288 285 286 285 283 282 283 285 286 284 281 280 281 281 282 282 281 281 280 280 280 279 278 276 275 274
268 268 271 273 275 279 282 286 289 290 291 291 292 294 294 294 290 288 286 285 284 284 283 281 282 283 284 284 283 282 282 282 281 282 281 281 281 282 280 278 278 277 273
266 268 270 272 277 281 284 286 286 287 288 290 292 291 291 291 291 289 287 285 284 283 282 281 281 282 284 286 284 283 283 283 283 282 282 283 284 283 281 279 278 277 276
Height
5859 5857 5855 5853 5852 5850 5848 5847 5845 5844 5842 5841 5840 5839 5837 5836 5835 5834 5834 5833 5833 5832 5832 5832 5831 5831 5830 5829 5829 5828 5827 5827 5826 5825 5825 5824 5824 5823 5823 5822 5822 5822 5821
5854 5852 5850 5848 5846 5845 5843 5841 5840 5838 5837 5835 5834 5832 5831 5830 5829 5828 5827 5826 5826 5826 5825 5825 5824 5824 5823 5823 5822 5822 5821 5820 5820 5819 5819 5818 5817 5817 5816 5816 5816 5815 5815
5849 5847 5845 5843 5841 5839 5837 5835 5834 5832 5831 5829 5827 5826 5825 5823 5822 5821 5821 5820 5819 5819 5818 5818 5817 5817 5816 5816 5815 5815 5814 5814 5813 5813 5812 5811 5811 5810 5810 5810 5810 5809 5809
5844 5842 5840 5838 5835 5833 5831 5829 5828 5826 5824 5822 5821 5819 5818 5816 5815 5814 5814 5813 5812 5811 5811 5811 5810 5810 5809 5808 5808 5808 5807 5806 5805 5805 5805 5804 5804 5804 5804 5804 5803 5803 5802
5839 5837 5834 5832 5829 5827 5825 5823 5821 5819 5818 5816 5814 5812 5811 5810 5809 5807 5806 5805 5805 5804 5804 5803 5803 5802 5802 5801 5801 5800 5800 5799 5798 5798 5798 5797 5797 5797 5797 5797 5796 5796 5796
5833 5831 5829 5826 5823 5821 5819 5817 5815 5813 5811 5809 5808 5806 5804 5803 5802 5801 5799 5798 5797 5797 5796 5796 5796 5795 5795 5794 5794 5793 5793 5792 5791 5791 5790 5790 5790 5790 5790 5790 5789 5790 5790
5827 5825 5823 5820 5818 5815 5813 5811 5809 5807 5805 5803 5801 5799 5798 5796 5795 5794 5792 5791 5790 5790 5789 5789 5788 5788 5787 5787 5786 5786 5785 5784 5784 5783 5782 5782 5782 5782 5783 5782 5782 5782 5783
5821 5819 5817 5814 5811 5809 5807 5805 5802 5800 5799 5797 5795 5793 5791 5790 5788 5787 5786 5784 5783 5783 5782 5781 5781 5781 5780 5779 5779 5778 5777 5776 5776 5775 5774 5774 5773 5773 5774 5774 5775 5775 5775
5815 5813 5810 5808 5805 5803 5801 5798 5796 5794 5792 5790 5788 5786 5784 5783 5781 5780 5779 5778 5777 5776 5775 5774 5774 5773 5773 5772 5771 5770 5769 5768 5767 5767 5766 5765 5765 5765 5765 5766 5766 5767 5767
5808 5806 5804 5801 5799 5797 5794 5792 5789 5787 5785 5783 5781 5779 5777 5776 5774 5773 5772 5771 5770 5769 5768 5767 5767 5766 5765 5764 5763 5762 5762 5760 5760 5759 5759 5758 5758 5757 5758 5758 5758 5759 5759
5801 5799 5797 5795 5793 5790 5788 5785 5783 5780 5778 5776 5774 5773 5771 5769 5768 5766 5765 5764 5762 5761 5761 5760 5759 5759 5758 5757 5756 5755 5754 5753 5752 5752 5751 5751 5750 5750 5750 5750 5751 5751 5752
5794 5792 5790 5788 5786 5784 5781 5779 5776 5773 5771 5769 5767 5766 5764 5762 5760 5759 5758 5756 5755 5754 5753 5752 5752 5751 5750 5749 5749 5748 5747 5746 5745 5744 5744 5744 5743 5743 5743 5743 5743 5743 5744
5786 5785 5783 5781 5779 5776 5774 5772 5769 5767 5765 5763 5761 5759 5757 5755 5753 5752 5751 5749 5748 5747 5746 5745 5744 5743 5743 5742 5742 5741 5740 5739 5738 5737 5737 5736 5736 5736 5736 5736 5736 5736 5736
5779 5778 5776 5774 5771 5769 5767 5765 5763 5761 5758 5756 5755 5753 5751 5748 5747 5745 5744 5742 5741 5740 5739 5737 5737 5736 5736 5735 5734 5733 5732 5732 5731 5730 5730 5729 5729 5729 5729 5728 5728 5728 5729
5771 5770 5768 5766 5764 5762 5760 5758 5756 5754 5752 5750 5748 5746 5744 5742 5741 5739 5737 5735 5734 5733 5732 5730 5730 5729 5729 5728 5727 5726 5726 5725 5724 5723 5723 5723 5722 5722 5721 5721 5721 5721 5721
5763 5762 5760 5759 5757 5755 5752 5750 5748 5747 5745 5743 5741 5739 5737 5736 5734 5732 5731 5729 5728 5726 5725 5724 5723 5723 5722 5721 5720 5720 5719 5718 5717 5717 5717 5716 5715 5715 5715 5714 5714 5714 5714
5756 5754 5753 5751 5750 5748 5745 5743 5742 5740 5739 5737 5735 5733 5731 5730 5728 5726 5725 5723 5721 5719 5718 5717 5717 5716 5715 5714 5714 5713 5712 5711 5711 5711 5710 5709 5708 5708 5708 5707 5707 5707 5707
5748 5747 5745 5744 5742 5741 5738 5736 5735 5733 5732 5730 5728 5727 5725 5723 5722 5720 5718 5716 5714 5713 5711 5711 5710 5709 5708 5707 5707 5706 5705 5705 5704 5704 5704 5703 5702 5702 5701 5701 5700 5700 5700
5740 5739 5738 5737 5735 5734 5732 5730 5728 5727 5725 5724 5722 5720 5718 5717 5715 5713 5711 5709 5707 5706 5705 5704 5703 5702 5701 5701 5700 5699 5699 5698 5698 5697 5697 5697 5696 5695 5694 5694 5694 5694 5694
5732 5731 5730 5729 5728 5727 5725 5724 5722 5721 5719 5717 5715 5714 5712 5710 5709 5707 5705 5703 5701 5700 5698 5697 5696 5695 5695 5694 5693 5693 5692 5692 5691 5691 5690 5690 5689 5689 5688 5687 5687 5687 5687
5723 5723 5722 5721 5720 5720 5719 5718 5716 5714 5713 5711 5709 5708 5706 5704 5702 5700 5698 5696 5695 5693 5692 5691 5690 5689 5688 5687 5687 5687 5686 5685 5685 5684 5684 5683 5682 5682 5682 5681 5681 5681 5680
5715 5715 5714 5714 5713 5713 5712 5711 5710 5708 5707 5705 5703 5701 5700 5698 5696 5694 5692 5691 5689 5687 5686 5685 5684 5683 5682 5682 5681 5681 5680 5679 5679 5678 5677 5677 5676 5675 5675 5675 5675 5674 5674
5707 5707 5706 5706 5706 5706 5705 5705 5703 5702 5701 5699 5697 5695 5693 5691 5690 5688 5687 5685 5683 5681 5680 5679 5678 5677 5677 5676 5676 5675 5674 5674 5673 5672 5671 5671 5670 5670 5669 5669 5668 5668 5668
5700 5700 5700 5700 5700 5699 5699 5698 5697 5695 5694 5692 5690 5689 5687 5685 5683 5682 5680 5679 5677 5676 5675 5674 5673 5672 5671 5671 5670 5669 5669 5668 5667 5666 5665 5665 5664 5663 5663 5662 5662 5661 5661
5693 5693 5693 5693 5693 5693 5692 5691 5690 5689 5688 5686 5684 5682 5681 5679 5677 5675 5674 5673 5671 5670 5669 5668 5667 5666 5666 5665 5665 5664 5663 5662 5661 5660 5659 5659 5658 5657 5657 5656 5655 5655 5654
5686 5686 5687 5687 5687 5687 5686 5685 5684 5683 5681 5680 5678 5676 5674 5673 5671 5669 5668 5667 5665 5664 5663 5662 5661 5661 5660 5660 5659 5658 5658 5657 5656 5655 5654 5653 5652 5651 5650 5650 5649 5648 5648